This demonstration page uses our WeatherBlox Daily Observations layout. Learn more.

Left ArrowRight Arrow

Hourly Observations for September 1, 2015

Temp ( °F °C ) Dew Point ( °F °C ) Humidity (%) Winds ( mph kmh ) Pressure ( in mb ) Visibility ( mi km ) Precip ( " mm )
12:59 am 00:59 Mostly Cloudy 74 23.3 70 21.1 88 88 SSW 3 6 30.08 1019 10 16 0.00 0.00
1:59 am 01:59 Cloudy 74 23.3 71 21.7 91 91 WSW 3 6 30.07 1018 10 16 0.00 0.00
2:59 am 02:59 Mostly Cloudy 73 22.8 70 21.1 90 90 W 5 7 30.06 1018 10 16 0.00 0.00
3:13 am 03:13 Mostly Cloudy 74 23.3 70 21.1 88 88 W 5 7 30.06 1018 9 14 0.00 0.00
3:37 am 03:37 Cloudy 74 23.3 71 21.7 91 91 W 5 7 30.06 1018 10 16 0.00 0.00
3:59 am 03:59 Mostly Cloudy 74 23.3 71 21.7 91 91 NW 3 6 30.05 1018 10 16 0.00 0.00
4:59 am 04:59 Mostly Cloudy 73 22.8 70 21.1 90 90 NNW 3 6 30.05 1018 9 14 0.00 0.00
5:34 am 05:34 Mostly Cloudy 74 23.3 70 21.1 88 88 NNW 5 7 30.06 1018 10 16 0.00 0.00
5:59 am 05:59 Mostly Cloudy 75 23.9 70 21.1 84 84 N 5 7 30.05 1018 10 16 0.00 0.00
6:44 am 06:44 Mostly Cloudy 75 23.9 70 21.1 84 84 N 5 7 30.06 1018 10 16 0.00 0.00
6:59 am 06:59 Mostly Cloudy 75 23.9 70 21.1 84 84 N 5 7 30.06 1018 9 14 0.00 0.00
7:59 am 07:59 Cloudy 76 24.4 70 21.1 82 82 N 5 7 30.06 1018 10 16 0.00 0.00
8:59 am 08:59 Mostly Cloudy 77 25 68 20 74 74 N 3 6 30.08 1019 10 16 0.00 0.00
9:59 am 09:59 Mostly Cloudy 79 26.1 70 21.1 74 74 N 6 9 30.09 1019 10 16 0.00 0.00
10:59 am 10:59 Mostly Cloudy 82 27.8 70 21.1 67 67 VRB 5 7 30.11 1020 10 16 0.00 0.00
11:59 am 11:59 Mostly Cloudy 82 27.8 70 21.1 67 67 Calm 30.10 1019 10 16 0.00 0.00
12:59 pm 12:59 Mostly Cloudy 85 29.4 70 21.1 61 61 NW 7 11 30.09 1019 10 16 0.00 0.00
1:59 pm 13:59 Partly Cloudy 84 28.9 70 21.1 63 63 N 8 13 30.07 1018 7 11 0.00 0.00
2:59 pm 14:59 Partly Cloudy 86 30 70 21.1 59 59 N 6 9 30.05 1018 7 11 0.00 0.00
3:59 pm 15:59 Partly Cloudy 86 30 68 20 55 55 NNE 8 13 30.04 1017 7 11 0.00 0.00
4:59 pm 16:59 Partly Cloudy 85 29.4 68 20 57 57 NNE 9 15 30.04 1017 7 11 0.00 0.00
5:59 pm 17:59 Partly Cloudy 85 29.4 71 21.7 63 63 ENE 9 15 30.04 1017 7 11 0.00 0.00
6:59 pm 18:59 Partly Cloudy 85 29.4 76 24.4 75 75 E 5 7 30.04 1017 10 16 0.00 0.00
7:59 pm 19:59 Mostly Cloudy 75 23.9 69 20.6 82 82 SSE 3 6 30.09 1019 10 16 0.00 0.00
8:59 pm 20:59 Partly Cloudy 76 24.4 71 21.7 85 85 SE 3 6 30.06 1018 10 16 0.00 0.00
9:59 pm 21:59 Partly Cloudy 76 24.4 71 21.7 85 85 SE 5 7 30.07 1018 10 16 0.00 0.00
10:59 pm 22:59 Mostly Clear 76 24.4 71 21.7 85 85 S 5 7 30.07 1018 10 16 0.00 0.00
11:59 pm 23:59 Partly Cloudy 76 24.4 71 21.7 85 85 S 5 7 30.07 1018 10 16 0.00 0.00

Powered by AerisWeather